Location: Newark
(27.5900°N, 83.4900°E)
Time: 20:48:11
(UTC+00:00)

Hubble Space Telescope - Pass Details

Date: 15 December 2019
Orbit: 536 x 540 km, 28.5° (Epoch: 20 January)

Event Time Altitude Azimuth Distance (km) Brightness Sun altitude
Exits shadow 00:18:03 10° 254° (WSW) 1,785 2.9 -11.1°
Reaches altitude 10° 00:18:03 10° 254° (WSW) 1,784 2.9 -11.1°
Maximum altitude 00:22:11 77° 168° (SSE) 551 0.9 -10.2°
Drops below altitude 10° 00:26:18 10° 83° (E) 1,786 4.5 -9.4°
Sets 00:28:34 0° 81° (E) 2,678 5.5 -8.9°
